Terminal Aerodrome Forecast
Issued by NWS Columbia, SC

Home | Current Version | Previous Version | Text Only | Print | Product List | Glossary On
Versions: 1 2 3 4 5 6 7 8 9 10 11 12 13 14 15 16 17 18 19 20 21 22 23 24 25 26 27 28 29 30 31 32 33 34 35 36 37 38 39 40 41 42 43 44 45 46 47
000
FTAK31 PAJN 292338
TAFAGS
TAF
PAGS 292338Z 3000/3024 11006KT P6SM -SHRA SCT025 BKN040 BKN060
      TEMPO 3000/3004 13010G15KT 6SM -SHRA BKN025 OVC040
     FM300600 12005KT P6SM SCT025 OVC040
     FM301400 12010KT P6SM -RA SCT020 OVC035
     FM301700 12012G25KT 5SM -RA BR BKN025 OVC040 WS020/15040KT
      PROB30 3020/3024 3SM RA BR OVC010
      AMD LTD TO CLD VIS AND WIND=

USA.gov is the U.S. government's official web portal to all federal, state and local government web resources and services.